Paso Robles, CA

5:40 PM PST on December 06, 2019 (GMT -0800)
Paso Robles Municipal

Weather History for KPRB - October, 2019

Change the Weather History Date:

Sunday, October 13, 2019

  Actual Average Record
Temperature  
Mean Temperature 58 °F 63 °F  
Max Temperature 82 °F 80 °F 103 °F (1999)
Min Temperature 34 °F 45 °F 30 °F (2008)
Degree Days  
Heating Degree Days 7 4  
Month to date heating degree days 54 36  
Since 1 July heating degree days 80 68  
Cooling Degree Days 0 1  
Month to date cooling degree days 11 27  
Year to date cooling degree days 1046 918  
Growing Degree Days 8 (Base 50)    
Moisture  
Dew Point 25 °F    
Average Humidity 33    
Maximum Humidity 52    
Minimum Humidity 9    
Precipitation  
Precipitation 0.00 in 0.01 in 1.80 in (2009)
Month to date precipitation 0.00 0.17  
Year to date precipitation 11.28 9.29  
Sea Level Pressure  
Sea Level Pressure 29.86 in    
Wind  
Wind Speed 3 mph ()    
Max Wind Speed 15 mph    
Max Gust Speed 19 mph    
Visibility 10.0 miles    
Events      
T = Trace of Precipitation, MM = Missing Value Source: Averaged Metar Reports

Daily Weather History Graph

Daily Weather History Graph

Search for Another Location

Airport or City:

Astronomy

Oct. 13, 2019 Rise Set
Actual Time 7:07 AM PDT 6:29 PM PDT
Civil Twilight 6:41 AM PDT 6:55 PM PDT
Nautical Twilight 6:11 AM PDT 7:24 PM PDT
Astronomical Twilight 5:42 AM PDT 7:54 PM PDT
Moon 6:52 PM PDT (10/13) 6:48 AM PDT (10/13)
Length of Visible Light 12h 13m
Length of Day
11h 22m
Full, 100% of the Moon is Illuminated
Oct 13
Full
Oct 13
Full
Oct 21
Last Quarter
Oct 27
New
Nov 4
First Quarter

Hourly Weather History & Observations

Time (PDT) Temp. Windchill Dew Point Humidity Pressure Visibility Wind Dir Wind Speed Gust Speed Precip Events Conditions
12:53 AM 44.1 °F - 18.0 °F 35% 29.88 in 10.0 mi Calm Calm - N/A   Clear
1:53 AM 44.1 °F 42.5 °F 19.0 °F 37% 29.88 in 10.0 mi SE 3.5 mph - N/A   Clear
2:53 AM 41.0 °F 39.0 °F 18.0 °F 40% 29.87 in 10.0 mi SSE 3.5 mph - N/A   Clear
3:53 AM 39.0 °F - 17.1 °F 41% 29.86 in 10.0 mi Calm Calm - N/A   Clear
4:53 AM 37.0 °F - 18.0 °F 46% 29.86 in 10.0 mi North - - N/A   Clear
5:53 AM 37.9 °F - 18.0 °F 45% 29.87 in 10.0 mi Calm Calm - N/A   Clear
6:53 AM 36.0 °F - 18.0 °F 48% 29.88 in 10.0 mi Calm Calm - N/A   Clear
7:53 AM 36.0 °F - 19.0 °F 50% 29.90 in 10.0 mi Calm Calm - N/A   Clear
8:53 AM 46.0 °F - 21.9 °F 39% 29.90 in 10.0 mi Calm Calm - N/A   Clear
9:53 AM 53.1 °F - 21.9 °F 30% 29.90 in 10.0 mi SW 4.6 mph - N/A   Clear
10:53 AM 61.0 °F - 23.0 °F 23% 29.88 in 10.0 mi Calm Calm - N/A   Clear
11:53 AM 69.1 °F - 23.0 °F 18% 29.86 in 10.0 mi Calm Calm - N/A   Clear
12:53 PM 77.0 °F - 23.0 °F 13% 29.83 in 10.0 mi WNW 3.5 mph - N/A   Clear
1:53 PM 81.0 °F - 16.0 °F 9% 29.80 in 10.0 mi SSW 9.2 mph - N/A   Clear
2:53 PM 81.0 °F - 26.1 °F 13% 29.80 in 10.0 mi SSW 13.8 mph - N/A   Clear
3:53 PM 81.0 °F - 33.1 °F 18% 29.79 in 10.0 mi SSW 11.5 mph - N/A   Clear
4:53 PM 78.1 °F - 36.0 °F 22% 29.80 in 10.0 mi South 13.8 mph - N/A   Clear
5:53 PM 72.0 °F - 34.0 °F 25% 29.81 in 10.0 mi South 10.4 mph - N/A   Clear
6:53 PM 66.0 °F - 33.1 °F 29% 29.83 in 10.0 mi SSW 8.1 mph - N/A   Clear
7:53 PM 61.0 °F - 32.0 °F 34% 29.86 in 10.0 mi NW 3.5 mph - N/A   Clear
8:53 PM 57.9 °F - 34.0 °F 41% 29.87 in 10.0 mi West 3.5 mph - N/A   Clear
9:53 PM 54.0 °F - 30.9 °F 41% 29.88 in 10.0 mi NW 3.5 mph - N/A   Clear
10:53 PM 53.1 °F - 30.0 °F 41% 29.88 in 10.0 mi NW 4.6 mph - N/A   Clear
11:53 PM 46.9 °F - 28.0 °F 48% 29.90 in 10.0 mi ESE 3.5 mph - N/A   Clear